SCP
0 0 0 0 0 0 0 0 0 -0 -0 -1 0 1 0 0 0 0 0 0 0 0 0 0 0 0 0 0 0 0 1 1 0 0 0 1 1 1 1 1 1 1 1
0 0 0 0 0 0 0 0 0 0 0 0 1 1 1 1 1 0 1 0 0 0 -0 -0 0 0 1 1 1 1 1 1 0 1 1 1 1 1 1 1 1 1 1
0 0 0 0 0 0 0 0 0 0 0 0 1 1 1 2 2 1 1 1 1 0 1 0 0 1 1 1 1 1 1 1 1 1 1 1 1 1 0 0 1 1 0
0 0 0 0 0 0 0 0 0 0 0 0 0 1 0 1 2 2 2 2 2 3 2 1 1 1 1 2 1 1 1 2 1 1 1 1 1 1 1 0 1 0 0
0 0 0 0 0 0 0 0 0 0 0 0 0 0 0 1 1 2 4 4 2 2 2 2 2 2 2 2 2 2 1 1 2 2 2 1 0 0 0 0 0 0 0
0 0 0 0 0 0 0 0 0 0 0 0 0 0 1 1 1 2 2 2 2 2 2 1 2 2 2 2 2 2 1 2 2 2 1 1 1 1 1 1 1 1 0
0 0 0 0 0 0 0 0 0 0 0 0 0 0 0 2 3 3 2 2 2 2 3 3 3 3 3 3 2 2 2 2 2 2 1 1 1 1 1 1 1 0 0
0 -0 -0 -0 0 0 0 0 0 0 0 0 0 0 0 0 1 2 2 1 2 3 4 4 3 3 3 3 2 3 4 4 2 1 1 1 1 1 1 1 0 0 0
0 -0 0 -0 -0 -0 -0 -0 0 0 0 0 0 0 0 0 0 2 2 1 2 4 4 3 3 3 3 3 4 5 4 3 2 1 1 1 1 1 1 0 0 0 0
0 -0 -0 -0 -0 -0 -0 -0 0 0 0 0 0 0 0 0 0 1 2 1 2 3 3 3 4 4 3 4 5 5 4 2 1 1 1 1 1 1 0 0 0 0 0
-0 -0 -0 -0 -0 -0 -0 -0 -0 0 0 0 0 0 0 0 0 1 1 1 3 4 3 4 4 3 4 4 5 4 3 1 1 1 1 1 1 0 0 0 0 0 0
-0 -0 -0 -0 -0 -0 -0 -0 -0 0 0 0 0 0 0 0 0 1 1 1 2 2 2 3 3 3 4 4 4 3 2 0 0 0 0 1 0 0 0 0 0 0 0
-0 -0 -0 -0 -0 -0 -0 0 0 0 0 0 0 0 0 0 0 1 1 1 1 2 3 2 3 3 4 3 3 2 1 0 0 0 0 0 0 0 0 0 0 0 0
0 0 -0 -0 -0 -0 0 0 0 0 0 0 0 0 0 0 1 1 1 2 2 2 2 3 3 3 3 3 2 1 0 0 0 0 0 0 0 0 0 0 0 0 0
-0 -0 -0 -0 -0 -0 0 0 0 0 0 0 0 1 0 1 0 1 1 2 2 2 2 3 3 3 3 3 1 1 1 0 0 0 0 0 0 0 0 0 0 0 0
-0 0 -0 -0 -0 0 -0 0 0 0 0 0 0 0 0 0 1 1 2 2 2 2 3 2 3 3 4 0 0 0 0 0 0 0 0 0 0 0 0 0 0 0 0
-0 0 -0 -0 -0 0 -0 -0 0 0 0 0 0 0 0 0 1 2 2 3 3 4 2 3 3 3 2 0 0 0 0 0 0 0 0 0 0 0 0 0 0 0 0
-0 -0 -0 -0 -0 -0 -0 -0 0 0 0 0 0 0 0 1 2 3 3 3 3 3 3 3 3 3 1 0 0 0 0 0 0 0 0 0 0 0 0 0 0 0 0
-0 0 0 -0 -0 0 0 0 0 0 0 0 0 1 1 2 3 3 2 2 3 2 3 3 1 1 0 0 0 0 0 0 0 0 0 0 0 0 0 0 0 0 0
-0 0 0 -0 0 -0 -0 0 0 -0 0 2 1 2 2 3 3 3 3 2 3 3 1 1 1 0 0 0 0 0 0 0 0 0 0 0 0 0 0 0 0 0 0
-0 0 0 0 -0 -0 -0 -0 -0 0 0 1 2 4 4 3 2 2 2 2 1 0 0 0 0 0 0 0 0 0 0 0 0 0 0 0 0 0 0 0 0 -0 -0
0 0 0 0 -0 -0 -0 -0 0 0 0 0 2 2 2 2 2 2 2 1 0 0 0 0 0 0 0 0 0 0 0 0 0 0 0 0 0 0 0 0 0 -0 -0
0 0 0 0 -0 -0 -0 -0 -0 0 0 1 1 1 1 1 2 1 1 1 0 0 0 0 0 0 0 0 0 0 0 0 0 0 0 0 0 0 0 0 -0 -0 0
0 0 0 -0 -0 -0 -0 0 0 0 0 0 0 1 0 1 1 1 1 1 0 0 0 0 0 0 0 0 0 0 0 0 0 0 0 0 0 0 0 0 0 0 0
0 0 -0 -0 -0 -0 0 0 0 0 0 0 0 0 0 0 0 0 0 0 0 0 0 0 0 0 0 0 0 0 0 0 0 0 0 0 0 0 0 0 0 0 0
-0 -0 -0 -0 -0 0 0 0 0 0 0 0 0 0 0 0 0 0 0 0 0 0 0 0 0 0 0 0 0 0 0 0 0 0 0 0 0 0 0 0 0 0 0
Wind_Speed_500mb
15 9 16 20 22 25 22 15 62 49 48 49 44 48 49 60 77 84 82 68 71 68 73 69 59 53 42 36 33 33 37 33 35 31 24 31 34 32 29 31 32 35 37
21 19 14 17 22 27 31 31 22 20 50 66 49 46 41 44 52 70 78 81 72 67 63 86 63 53 42 40 36 35 38 35 37 32 19 13 18 25 24 23 25 29 31
31 19 21 26 26 31 36 40 40 36 32 35 34 45 44 46 50 51 75 81 69 56 42 101 74 55 40 42 37 37 39 36 38 35 18 11 13 9 12 12 15 18 25
16 29 29 31 29 30 33 37 45 50 47 39 40 38 45 51 54 52 54 70 74 79 77 96 75 50 45 46 40 39 39 38 39 35 34 34 25 14 10 8 16 26 31
20 23 28 36 42 48 44 45 44 51 56 54 47 45 47 53 56 57 59 59 85 82 74 72 64 48 50 47 45 42 43 41 41 41 37 38 37 33 28 24 18 27 25
16 23 32 43 50 53 55 54 54 53 52 62 60 55 54 55 61 61 67 65 68 78 68 56 57 51 51 47 47 44 42 40 39 41 39 38 35 29 27 24 22 21 20
21 29 38 45 53 65 68 67 73 65 55 61 68 66 63 59 63 66 69 78 71 71 77 67 58 53 50 48 48 46 43 41 42 37 36 34 32 32 24 20 16 16 17
33 46 35 36 52 63 64 75 71 70 65 64 69 71 70 64 65 72 78 82 78 72 69 61 51 48 48 48 49 47 40 40 42 36 36 30 29 28 23 17 15 15 16
48 40 44 43 48 50 59 64 64 63 62 67 69 76 77 73 69 72 81 83 77 65 58 61 51 47 46 48 49 43 39 42 42 38 38 31 29 28 22 25 22 19 15
49 38 32 45 57 51 52 65 59 57 56 65 74 76 81 81 74 69 80 86 78 67 62 69 55 50 47 50 47 40 39 44 39 40 37 32 30 26 23 25 24 23 17
48 43 41 48 49 58 72 65 67 63 58 58 70 74 75 83 82 76 80 89 81 69 68 78 55 51 51 52 45 42 42 41 41 42 36 33 32 25 24 24 24 24 19
40 39 47 53 64 60 63 59 70 66 58 57 59 71 73 76 85 86 78 83 77 69 71 73 55 54 53 52 48 40 46 41 39 39 37 35 32 26 25 25 25 23 23
46 42 39 50 62 68 59 64 69 65 65 62 55 64 71 74 86 88 77 76 65 71 72 65 57 58 55 54 47 42 45 40 36 33 35 35 29 27 27 26 25 23 23
38 38 43 54 64 63 70 62 67 66 65 63 55 67 77 78 87 88 74 71 67 70 69 64 61 57 57 54 44 46 44 39 34 34 35 31 25 26 25 24 23 24 22
37 40 49 61 67 72 57 62 69 66 65 62 58 66 84 82 86 83 72 64 70 68 69 67 61 59 59 50 52 53 45 37 34 35 34 28 24 26 25 24 23 23 22
49 47 50 61 70 68 62 73 85 74 68 62 62 54 68 73 85 73 68 72 75 74 71 66 64 62 55 50 54 51 42 36 35 37 33 26 22 24 26 26 26 22 22
56 48 59 64 81 84 70 92 87 86 67 64 63 55 68 70 72 71 78 79 77 76 70 66 61 55 55 59 57 42 37 40 37 37 28 24 21 23 24 24 23 24 26
52 58 62 62 73 79 79 90 94 84 68 66 59 66 72 69 76 81 83 81 78 71 67 61 55 59 59 61 48 41 37 39 40 35 27 20 18 22 24 24 22 21 23
59 64 58 63 73 72 62 80 86 63 85 49 62 71 69 76 85 84 80 74 69 65 57 58 63 63 64 55 52 46 43 39 37 33 26 21 20 23 25 24 23 25 21
57 60 60 59 72 74 73 66 69 69 64 38 50 59 67 74 76 79 77 69 62 60 61 66 67 67 60 60 51 48 43 39 35 32 26 23 23 23 23 22 21 23 18
55 57 58 66 69 77 70 71 62 53 47 35 33 47 54 64 67 67 64 68 63 66 72 76 69 59 57 62 52 43 36 31 31 29 25 23 21 19 20 20 22 22 21
58 54 59 65 76 62 57 60 50 40 34 20 21 32 44 49 53 65 69 64 69 78 80 74 67 60 58 52 48 42 33 28 27 25 25 23 18 17 14 13 20 23 23
62 56 53 64 62 53 45 50 30 24 21 11 21 31 35 42 57 68 65 69 84 81 75 69 66 60 54 51 44 40 33 29 25 26 25 22 20 22 26 22 19 20 21
69 70 66 57 55 49 45 37 26 2 5 6 23 31 40 53 66 67 73 85 81 76 71 68 64 59 51 47 44 40 34 28 27 28 26 24 28 28 27 23 21 16 16
67 61 59 48 52 51 37 30 14 5 13 6 23 43 58 71 66 72 76 71 68 67 67 62 58 54 48 44 39 36 33 31 27 28 29 31 32 34 30 25 21 17 9
52 56 46 46 51 39 33 28 15 9 22 13 35 56 63 59 65 67 67 60 53 48 47 42 39 39 35 36 34 32 30 27 27 26 27 34 35 34 29 25 21 17 10
Wind_Direction_500mb
259 247 287 289 284 278 266 236 227 260 280 278 283 263 255 255 246 243 244 241 232 248 260 257 250 245 248 256 257 250 247 243 241 246 247 245 247 254 255 257 266 266 270
257 292 294 292 303 297 285 277 271 224 238 253 266 270 270 263 259 250 244 236 238 247 269 275 254 249 249 255 258 251 249 239 234 236 230 246 252 251 247 257 268 269 272
298 303 318 317 313 305 296 280 268 262 254 259 260 264 262 261 261 252 239 238 239 228 255 257 255 249 254 262 257 251 244 240 233 231 214 196 227 181 223 281 274 284 283
296 312 316 320 330 320 309 299 284 269 264 267 270 269 266 258 261 262 253 240 230 243 234 254 245 250 259 262 255 250 245 236 229 221 231 229 237 254 257 276 281 296 287
307 320 326 318 315 316 313 305 299 280 267 266 269 271 267 260 255 259 259 247 239 239 253 245 242 248 256 263 249 245 244 238 228 228 229 225 238 246 251 268 273 281 276
319 322 322 322 319 319 318 310 299 293 274 261 260 261 260 262 257 250 258 258 252 245 244 239 247 246 255 256 246 247 243 236 226 236 227 229 232 232 237 252 261 263 274
316 322 321 321 324 322 316 312 309 289 281 267 254 258 257 255 256 245 248 255 255 249 244 250 250 245 258 250 239 241 240 232 227 224 224 225 230 239 237 241 252 256 267
327 324 318 320 326 325 321 313 301 292 285 269 259 252 254 252 255 241 241 248 248 248 253 244 237 244 255 239 234 234 235 230 222 222 222 217 230 241 242 234 231 262 255
319 314 315 319 326 324 320 315 305 293 284 271 266 256 250 248 250 245 238 243 249 247 246 231 232 247 244 230 230 231 233 220 213 220 223 222 233 243 239 246 246 237 250
319 305 301 315 322 321 312 315 308 295 285 272 264 258 250 244 245 247 239 244 242 244 230 233 231 240 231 224 223 226 220 210 217 218 218 223 239 240 242 243 233 230 231
314 301 295 310 313 314 314 299 310 297 288 278 266 260 253 245 241 242 241 239 244 245 235 233 227 232 224 218 218 220 215 208 218 214 219 230 241 235 232 227 225 229 223
313 301 297 306 312 310 311 296 311 301 291 287 272 260 251 250 242 240 243 235 237 241 228 220 222 224 217 215 216 217 204 210 214 214 223 237 231 226 226 222 221 220 228
308 306 303 309 310 309 309 308 308 297 291 286 275 262 253 249 242 238 242 234 228 222 214 214 221 217 213 212 211 204 203 206 216 217 234 230 225 224 222 220 219 220 232
301 310 311 313 313 307 305 308 306 295 293 283 276 261 249 243 236 235 238 224 216 204 205 215 217 210 208 207 201 194 200 203 211 226 219 218 221 218 215 212 216 224 226
295 300 309 316 320 309 299 303 308 300 296 282 277 260 241 235 231 231 224 210 198 199 210 213 205 203 203 202 191 193 199 203 210 208 208 212 214 215 211 210 216 224 225
297 289 305 308 314 315 305 306 311 305 296 278 266 265 237 224 220 220 205 192 196 203 207 203 200 198 200 198 190 198 194 193 199 203 205 209 215 216 216 216 220 226 239
303 289 302 304 316 319 309 310 311 302 297 286 242 246 218 205 205 200 192 191 198 199 196 194 196 197 196 187 190 185 189 194 199 198 199 209 221 221 219 216 221 251 254
301 296 301 304 311 318 321 313 301 303 295 272 254 210 197 190 188 189 188 193 195 190 191 193 191 190 187 183 176 177 185 190 190 197 205 215 227 218 214 219 241 255 248
301 300 300 305 308 310 309 308 306 313 292 248 189 183 178 179 184 184 186 185 183 187 189 183 182 182 172 173 171 172 176 183 192 198 209 225 221 218 220 236 255 248 228
301 300 304 306 308 314 319 307 309 325 4 125 146 159 168 176 174 174 175 179 184 175 174 176 175 173 173 173 171 177 183 191 198 205 218 223 219 223 233 247 241 217 213
300 301 307 309 313 319 327 332 352 357 350 63 125 139 147 160 168 173 174 168 169 173 171 168 166 171 176 175 181 186 191 200 203 213 220 220 218 225 241 230 211 203 198
302 301 307 310 313 321 328 330 349 360 330 22 119 143 155 163 171 166 160 165 167 165 162 165 167 172 176 181 182 188 197 201 208 213 213 204 207 208 178 175 181 185 192
298 295 298 304 301 312 321 319 345 349 318 2 172 165 162 167 167 165 164 167 161 160 162 166 168 173 176 180 183 189 198 201 201 198 190 189 184 163 155 148 144 155 171
294 294 296 296 292 299 300 301 329 256 221 123 167 167 164 167 165 169 169 160 163 163 165 168 170 170 174 180 185 190 192 192 188 185 182 179 168 167 171 168 163 168 180
288 287 285 279 286 296 283 301 311 284 179 138 165 172 161 158 156 154 154 161 166 169 168 170 173 177 182 186 189 190 187 183 182 181 178 173 175 175 176 172 168 184 207
281 275 268 277 287 281 275 291 274 230 216 250 159 156 135 144 154 153 154 161 161 165 170 174 180 180 179 176 176 177 176 178 176 173 180 176 183 181 174 176 177 185 211
Wind_Speed_850mb
15 9 16 20 22 25 22 15 62 49 48 49 44 48 49 60 77 84 82 68 71 68 73 69 59 53 42 36 33 33 37 33 35 31 24 31 34 32 29 31 32 35 37
21 19 14 17 22 27 31 31 22 20 50 66 49 46 41 44 52 70 78 81 72 67 63 86 63 53 42 40 36 35 38 35 37 32 19 13 18 25 24 23 25 29 31
31 19 21 26 26 31 36 40 40 36 32 35 34 45 44 46 50 51 75 81 69 56 42 101 74 55 40 42 37 37 39 36 38 35 18 11 13 9 12 12 15 18 25
16 29 29 31 29 30 33 37 45 50 47 39 40 38 45 51 54 52 54 70 74 79 77 96 75 50 45 46 40 39 39 38 39 35 34 34 25 14 10 8 16 26 31
20 23 28 36 42 48 44 45 44 51 56 54 47 45 47 53 56 57 59 59 85 82 74 72 64 48 50 47 45 42 43 41 41 41 37 38 37 33 28 24 18 27 25
16 23 32 43 50 53 55 54 54 53 52 62 60 55 54 55 61 61 67 65 68 78 68 56 57 51 51 47 47 44 42 40 39 41 39 38 35 29 27 24 22 21 20
21 29 38 45 53 65 68 67 73 65 55 61 68 66 63 59 63 66 69 78 71 71 77 67 58 53 50 48 48 46 43 41 42 37 36 34 32 32 24 20 16 16 17
33 46 35 36 52 63 64 75 71 70 65 64 69 71 70 64 65 72 78 82 78 72 69 61 51 48 48 48 49 47 40 40 42 36 36 30 29 28 23 17 15 15 16
48 40 44 43 48 50 59 64 64 63 62 67 69 76 77 73 69 72 81 83 77 65 58 61 51 47 46 48 49 43 39 42 42 38 38 31 29 28 22 25 22 19 15
49 38 32 45 57 51 52 65 59 57 56 65 74 76 81 81 74 69 80 86 78 67 62 69 55 50 47 50 47 40 39 44 39 40 37 32 30 26 23 25 24 23 17
48 43 41 48 49 58 72 65 67 63 58 58 70 74 75 83 82 76 80 89 81 69 68 78 55 51 51 52 45 42 42 41 41 42 36 33 32 25 24 24 24 24 19
40 39 47 53 64 60 63 59 70 66 58 57 59 71 73 76 85 86 78 83 77 69 71 73 55 54 53 52 48 40 46 41 39 39 37 35 32 26 25 25 25 23 23
46 42 39 50 62 68 59 64 69 65 65 62 55 64 71 74 86 88 77 76 65 71 72 65 57 58 55 54 47 42 45 40 36 33 35 35 29 27 27 26 25 23 23
38 38 43 54 64 63 70 62 67 66 65 63 55 67 77 78 87 88 74 71 67 70 69 64 61 57 57 54 44 46 44 39 34 34 35 31 25 26 25 24 23 24 22
37 40 49 61 67 72 57 62 69 66 65 62 58 66 84 82 86 83 72 64 70 68 69 67 61 59 59 50 52 53 45 37 34 35 34 28 24 26 25 24 23 23 22
49 47 50 61 70 68 62 73 85 74 68 62 62 54 68 73 85 73 68 72 75 74 71 66 64 62 55 50 54 51 42 36 35 37 33 26 22 24 26 26 26 22 22
56 48 59 64 81 84 70 92 87 86 67 64 63 55 68 70 72 71 78 79 77 76 70 66 61 55 55 59 57 42 37 40 37 37 28 24 21 23 24 24 23 24 26
52 58 62 62 73 79 79 90 94 84 68 66 59 66 72 69 76 81 83 81 78 71 67 61 55 59 59 61 48 41 37 39 40 35 27 20 18 22 24 24 22 21 23
59 64 58 63 73 72 62 80 86 63 85 49 62 71 69 76 85 84 80 74 69 65 57 58 63 63 64 55 52 46 43 39 37 33 26 21 20 23 25 24 23 25 21
57 60 60 59 72 74 73 66 69 69 64 38 50 59 67 74 76 79 77 69 62 60 61 66 67 67 60 60 51 48 43 39 35 32 26 23 23 23 23 22 21 23 18
55 57 58 66 69 77 70 71 62 53 47 35 33 47 54 64 67 67 64 68 63 66 72 76 69 59 57 62 52 43 36 31 31 29 25 23 21 19 20 20 22 22 21
58 54 59 65 76 62 57 60 50 40 34 20 21 32 44 49 53 65 69 64 69 78 80 74 67 60 58 52 48 42 33 28 27 25 25 23 18 17 14 13 20 23 23
62 56 53 64 62 53 45 50 30 24 21 11 21 31 35 42 57 68 65 69 84 81 75 69 66 60 54 51 44 40 33 29 25 26 25 22 20 22 26 22 19 20 21
69 70 66 57 55 49 45 37 26 2 5 6 23 31 40 53 66 67 73 85 81 76 71 68 64 59 51 47 44 40 34 28 27 28 26 24 28 28 27 23 21 16 16
67 61 59 48 52 51 37 30 14 5 13 6 23 43 58 71 66 72 76 71 68 67 67 62 58 54 48 44 39 36 33 31 27 28 29 31 32 34 30 25 21 17 9
52 56 46 46 51 39 33 28 15 9 22 13 35 56 63 59 65 67 67 60 53 48 47 42 39 39 35 36 34 32 30 27 27 26 27 34 35 34 29 25 21 17 10
Wind_Direction_850mb
259 247 287 289 284 278 266 236 227 260 280 278 283 263 255 255 246 243 244 241 232 248 260 257 250 245 248 256 257 250 247 243 241 246 247 245 247 254 255 257 266 266 270
257 292 294 292 303 297 285 277 271 224 238 253 266 270 270 263 259 250 244 236 238 247 269 275 254 249 249 255 258 251 249 239 234 236 230 246 252 251 247 257 268 269 272
298 303 318 317 313 305 296 280 268 262 254 259 260 264 262 261 261 252 239 238 239 228 255 257 255 249 254 262 257 251 244 240 233 231 214 196 227 181 223 281 274 284 283
296 312 316 320 330 320 309 299 284 269 264 267 270 269 266 258 261 262 253 240 230 243 234 254 245 250 259 262 255 250 245 236 229 221 231 229 237 254 257 276 281 296 287
307 320 326 318 315 316 313 305 299 280 267 266 269 271 267 260 255 259 259 247 239 239 253 245 242 248 256 263 249 245 244 238 228 228 229 225 238 246 251 268 273 281 276
319 322 322 322 319 319 318 310 299 293 274 261 260 261 260 262 257 250 258 258 252 245 244 239 247 246 255 256 246 247 243 236 226 236 227 229 232 232 237 252 261 263 274
316 322 321 321 324 322 316 312 309 289 281 267 254 258 257 255 256 245 248 255 255 249 244 250 250 245 258 250 239 241 240 232 227 224 224 225 230 239 237 241 252 256 267
327 324 318 320 326 325 321 313 301 292 285 269 259 252 254 252 255 241 241 248 248 248 253 244 237 244 255 239 234 234 235 230 222 222 222 217 230 241 242 234 231 262 255
319 314 315 319 326 324 320 315 305 293 284 271 266 256 250 248 250 245 238 243 249 247 246 231 232 247 244 230 230 231 233 220 213 220 223 222 233 243 239 246 246 237 250
319 305 301 315 322 321 312 315 308 295 285 272 264 258 250 244 245 247 239 244 242 244 230 233 231 240 231 224 223 226 220 210 217 218 218 223 239 240 242 243 233 230 231
314 301 295 310 313 314 314 299 310 297 288 278 266 260 253 245 241 242 241 239 244 245 235 233 227 232 224 218 218 220 215 208 218 214 219 230 241 235 232 227 225 229 223
313 301 297 306 312 310 311 296 311 301 291 287 272 260 251 250 242 240 243 235 237 241 228 220 222 224 217 215 216 217 204 210 214 214 223 237 231 226 226 222 221 220 228
308 306 303 309 310 309 309 308 308 297 291 286 275 262 253 249 242 238 242 234 228 222 214 214 221 217 213 212 211 204 203 206 216 217 234 230 225 224 222 220 219 220 232
301 310 311 313 313 307 305 308 306 295 293 283 276 261 249 243 236 235 238 224 216 204 205 215 217 210 208 207 201 194 200 203 211 226 219 218 221 218 215 212 216 224 226
295 300 309 316 320 309 299 303 308 300 296 282 277 260 241 235 231 231 224 210 198 199 210 213 205 203 203 202 191 193 199 203 210 208 208 212 214 215 211 210 216 224 225
297 289 305 308 314 315 305 306 311 305 296 278 266 265 237 224 220 220 205 192 196 203 207 203 200 198 200 198 190 198 194 193 199 203 205 209 215 216 216 216 220 226 239
303 289 302 304 316 319 309 310 311 302 297 286 242 246 218 205 205 200 192 191 198 199 196 194 196 197 196 187 190 185 189 194 199 198 199 209 221 221 219 216 221 251 254
301 296 301 304 311 318 321 313 301 303 295 272 254 210 197 190 188 189 188 193 195 190 191 193 191 190 187 183 176 177 185 190 190 197 205 215 227 218 214 219 241 255 248
301 300 300 305 308 310 309 308 306 313 292 248 189 183 178 179 184 184 186 185 183 187 189 183 182 182 172 173 171 172 176 183 192 198 209 225 221 218 220 236 255 248 228
301 300 304 306 308 314 319 307 309 325 4 125 146 159 168 176 174 174 175 179 184 175 174 176 175 173 173 173 171 177 183 191 198 205 218 223 219 223 233 247 241 217 213
300 301 307 309 313 319 327 332 352 357 350 63 125 139 147 160 168 173 174 168 169 173 171 168 166 171 176 175 181 186 191 200 203 213 220 220 218 225 241 230 211 203 198
302 301 307 310 313 321 328 330 349 360 330 22 119 143 155 163 171 166 160 165 167 165 162 165 167 172 176 181 182 188 197 201 208 213 213 204 207 208 178 175 181 185 192
298 295 298 304 301 312 321 319 345 349 318 2 172 165 162 167 167 165 164 167 161 160 162 166 168 173 176 180 183 189 198 201 201 198 190 189 184 163 155 148 144 155 171
294 294 296 296 292 299 300 301 329 256 221 123 167 167 164 167 165 169 169 160 163 163 165 168 170 170 174 180 185 190 192 192 188 185 182 179 168 167 171 168 163 168 180
288 287 285 279 286 296 283 301 311 284 179 138 165 172 161 158 156 154 154 161 166 169 168 170 173 177 182 186 189 190 187 183 182 181 178 173 175 175 176 172 168 184 207
281 275 268 277 287 281 275 291 274 230 216 250 159 156 135 144 154 153 154 161 161 165 170 174 180 180 179 176 176 177 176 178 176 173 180 176 183 181 174 176 177 185 211